Regional Weather Roundup
Issued by NWS

Home | Current Version | Previous Version | Text Only | Print | Product List | Glossary On
Versions: 1 2 3 4 5 6 7 8 9 10 11 12 13 14 15 16 17 18 19 20 21 22 23 24 25 26 27 28 29 30 31 32 33 34 35 36 37 38 39 40 41 42 43 44 45 46 47 48 49 50
000
ASUS43 KFSD 290010
RWRSD

WEATHER ROUNDUP FOR SOUTH DAKOTA
NATIONAL WEATHER SERVICE SIOUX FALLS SD
700 PM CDT THU AUG 28 2014

NOTE: "FAIR" INDICATES FEW OR NO CLOUDS BELOW 12,000 FEET WITH NO
SIGNIFICANT WEATHER AND/OR OBSTRUCTIONS TO VISIBILITY.


SDZ001>005-009-010-012>017-290100-
NORTHWEST AND NORTH CENTRAL SOUTH DAKOTA

CITY           SKY/WX    TMP DP  RH WIND       PRES   REMARKS
BUFFALO          N/A     85  48  27 N8        29.83S
FAITH            N/A     74  64  71 E3        29.89F
MOBRIDGE       CLOUDY    70  68  93 NE3       29.85S
$$

SDZ012>016-024>037-041>051-057-063-072>074-290100-
SOUTHWEST AND SOUTH CENTRAL SOUTH DAKOTA

CITY           SKY/WX    TMP DP  RH WIND       PRES   REMARKS
RAPID CTY ARPT CLOUDY    76  57  51 CALM      29.92F
PIERRE         PTSUNNY   73  67  81 NW9       29.84S
CUSTER         PTSUNNY   70  48  45 W6        30.06F
ELLSWORTH AFB  CLOUDY    74  59  58 S3        29.92F
PHILIP         CLOUDY    74  61  63 NW6       29.88S
PINE RIDGE     CLOUDY    67  57  70 W5        29.96F
WINNER         FAIR      73  67  81 NW15      29.85S
$$

SDZ004>011-016>023-039-040-290100-
NORTHEAST SOUTH DAKOTA

CITY           SKY/WX    TMP DP  RH WIND       PRES   REMARKS
ABERDEEN       HVY RAIN  67  67 100 E7        29.86S FOG
WATERTOWN      CLOUDY    67  65  93 E7        29.86F
SISSETON         N/A     66  66 100 SE5       29.87F
$$

SDZ017-020-022-023-036>040-048>070-290100-
SOUTHEAST SOUTH DAKOTA

CITY           SKY/WX    TMP DP  RH WIND       PRES   REMARKS
SIOUX FALLS    CLOUDY    72  69  90 E9        29.84F
HURON          CLOUDY    72  68  87 E6        29.83R
CHAMBERLAIN    CLOUDY    74  68  83 N7        29.83R
MITCHELL       CLOUDY    74  70  87 NW10      29.80S
YANKTON        CLOUDY    79  72  78 SE9       29.79S
$$

ABBREVIATIONS USED IN REMARKS
   TC - TEMPERATURE IN CELSIUS
  WCI - WIND CHILL INDEX
   HX - HEAT INDEX
  VSB - VISIBILITY




USA.gov is the U.S. government's official web portal to all federal, state and local government web resources and services.